Tracking 21076 objects as of 7-Aug-2020
HD Live streaming from Space Station
objects crossing your sky now

FREGAT DEB

Track FREGAT DEB now!
10-day predictions


NORAD ID: 45837
Int'l Code: 2011-037BX
Perigee: 832.8 km
Apogee: 4,208.6 km
Inclination: 51.7 °
Period: 139.1 minutes
Semi major axis: 8891 km
RCS: Unknown
Launch date: July 18, 2011
Source: Commonwealth of Independent States (former USSR) (CIS)
Launch site: TYURATAM MISSILE AND SPACE COMPLEX (TTMTR)

Note: This is SATELLITE DEBRIS
aabbcc
Your satellite tracking list
Your tracking list is empty




NASA's NSSDC Master Catalog

Two Line Element Set (TLE):
1 45837U 11037BX  20219.47637641 -.00000937  00000-0 -30640-2 0  9997
2 45837  51.7005 264.1696 1898325 115.9155 264.9232 10.35444347  6722
Source of the keplerian elements: AFSPC